Flag for U.S.A. Weather past 2 weeks in Monterey, California, U.S.A.

Now
67 °F

Sunny.


Feels Like: 67 °F
Forecast: 51 / 63 °F
Wind: 6 mph from Northwest

Location: Monterey Peninsula Airport

Current Time: Jan 28, 2015 at 3:04:04 PM

Latest Report: Jan 28, 2015 at 1:54 PM


Visibility: 10 mi

Pressure: 30.19 "Hg

Humidity: 42%

Dew point: 43 °F

Location of MontereyLocation

Historic Weather in Monterey — Graph

°F

Monterey temperature yesterday

Maximum temperature yesterday: 66 °F (at 11:54 AM)
Minimum temperature yesterday: 50 °F (at 11:54 PM)
Average temperature yesterday: 58 °F

Past Weeks' High & Low Weather Summary

 TemperatureHumidityPressure
High80 °F (Jan 25, 1:54 PM)96% (Jan 19, 6:54 AM)30.37 "Hg (Jan 19, 6:54 AM)
Low40 °F (Jan 23, 6:54 AM)11% (Jan 25, 3:54 PM)30.00 "Hg (Jan 26, 1:54 PM)
Average56 °F66%30.21 "Hg
* Reported Jan 13 1:54 PM — Jan 28 1:54 PM, Monterey, Weather by CustomWeather, © 2014

Note: Actual official high and low records may vary slightly from our data, if they occured in-between our weather recording intervals... More about our weather records

Advertising

Monterey weather history for previous 24 hours

 ConditionsComfort  
Time TempWeatherWind HumidityBarometerVisibility
1:54 PM
Jan 28
67 °FSunny.6 mph42%30.19 "Hg10 mi
12:54 PM66 °FSunny.6 mph49%30.22 "Hg10 mi
11:54 AM65 °FSunny.No wind51%30.25 "Hg10 mi
10:54 AM64 °FSunny.5 mph49%30.27 "Hg10 mi
9:54 AM59 °FSunny.3 mph56%30.27 "Hg10 mi
8:54 AM55 °FSunny.No wind64%30.27 "Hg10 mi
7:54 AM47 °FSunny.5 mph77%30.28 "Hg10 mi
6:54 AM46 °FClear.6 mph79%30.26 "Hg10 mi
5:54 AM46 °FClear.6 mph79%30.25 "Hg10 mi
4:54 AM48 °FClear.8 mph80%30.27 "Hg10 mi
3:54 AM48 °FClear.6 mph80%30.27 "Hg10 mi
2:54 AM49 °FClear.6 mph77%30.28 "Hg10 mi
1:54 AM49 °FClear.7 mph77%30.27 "Hg10 mi
12:54 AM50 °FClear.5 mph77%30.27 "Hg10 mi
11:54 PM
Jan 27
50 °FClear.No wind77%30.27 "Hg10 mi
10:54 PM51 °FClear.No wind77%30.28 "Hg10 mi
9:54 PM51 °FPassing clouds.6 mph77%30.28 "Hg10 mi
8:54 PM52 °FPassing clouds.3 mph83%30.28 "Hg10 mi
7:54 PM55 °FPassing clouds.No wind80%30.27 "Hg10 mi
6:54 PM58 °FPassing clouds.3 mph78%30.26 "Hg10 mi
5:54 PM60 °FOvercast.No wind75%30.25 "Hg10 mi
4:54 PM61 °FOvercast.6 mph70%30.24 "Hg10 mi
3:54 PM66 °FSunny.5 mph50%30.24 "Hg10 mi
Weather by CustomWeather, © 2014

See weather overviewHow to use our weather pages